CW9927 Weather Reports


time (UTC)temp
C
wind
direction
speed
KPH
gust
KPH
rain 1hr
cm
rain 24hr
cm
rain mn
cm
humidity
%
barometer
mb
20260503232138 17 0.0 1.6 0.00 0.00 0.00 58 1013.2
20260503231118 16 0.0 1.6 0.00 0.00 0.00 58 1013.3
20260503230150 16 0.0 0.0 0.00 0.00 0.00 58 1013.4
20260503225118 17 0.0 0.0 0.00 0.00 0.00 59 1013.5
20260503224158 16 0.0 0.0 0.00 0.00 0.00 60 1013.4
20260503223138 16 0.0 0.0 0.00 0.00 0.00 61 1013.4
20260503222118 17 0.0 1.6 0.00 0.00 0.00 62 1013.4
20260503221118 17 0.0 0.0 0.00 0.00 0.00 62 1013.4
20260503220117 17 0.0 0.0 0.00 0.00 0.00 64 1013.5
20260503215117 17 0.0 0.0 0.00 0.00 0.00 65 1013.5
20260503214118 17 0.0 1.6 0.00 0.00 0.00 62 1013.5
20260503213117 18 0.0 0.0 0.00 0.00 0.00 62 1013.4
20260503212138 18 0.0 0.0 0.00 0.00 0.00 63 1013.4
20260503211117 17 0.0 0.0 0.00 0.00 0.00 63 1013.5
20260503210138 17 0.0 0.0 0.00 0.00 0.00 63 1013.6
20260503205118 17 0.0 0.0 0.00 0.00 0.00 64 1013.7
20260503204118 16 0.0 0.0 0.00 0.00 0.00 65 1013.8
20260503203118 17 0.0 1.6 0.00 0.00 0.00 63 1013.9
20260503202117 16 0.0 0.0 0.00 0.00 0.00 66 1013.9
20260503201138 16 0.0 0.0 0.00 0.00 0.00 65 1014.1
20260503200138 16 0.0 0.0 0.00 0.00 0.00 65 1014.0
20260503195117 16 0.0 0.0 0.00 0.00 0.00 65 1014.1
20260503194138 16 0.0 0.0 0.00 0.00 0.00 66 1014.1
20260503193117 16 0.0 0.0 0.00 0.00 0.00 67 1014.2
20260503192117 16 0.0 0.0 0.00 0.00 0.00 68 1014.2
20260503191118 16 0.0 0.0 0.00 0.00 0.00 69 1014.2
20260503185118 16 0.0 0.0 0.00 0.00 0.00 69 1014.3
20260503184117 15 0.0 0.0 0.00 0.00 0.00 73 1014.4
20260503183137 15 0.0 0.0 0.00 0.00 0.00 72 1014.4
20260503182158 15 0.0 0.0 0.00 0.00 0.00 72 1014.4
20260503181118 15 0.0 0.0 0.00 0.00 0.00 72 1014.4
20260503180118 15 0.0 0.0 0.00 0.00 0.00 73 1014.4
20260503175117 15 0.0 0.0 0.00 0.00 0.00 72 1014.5
20260503174118 15 0.0 0.0 0.00 0.00 0.00 74 1014.4
20260503173117 14 0.0 0.0 0.00 0.00 0.00 75 1014.3
20260503172117 14 0.0 0.0 0.00 0.00 0.00 76 1014.3
20260503171117 13 0.0 0.0 0.00 0.00 0.00 76 1014.3
20260503170118 13 0.0 0.0 0.00 0.00 0.00 78 1014.2
20260503160116 12 0.0 0.0 0.00 0.00 0.00 83 1014.1
20260503150117 12 0.0 0.0 0.00 0.00 0.00 83 1013.8
20260503140116 12 0.0 0.0 0.00 0.00 0.00 87 1013.2
20260503131116 12 0.0 0.0 0.00 0.00 0.00 87 1012.6
20260503120116 12 0.0 0.0 0.00 0.00 0.00 86 1012.0
20260503110116 12 0.0 0.0 0.00 0.00 0.00 84 1011.8
20260503100117 12 0.0 0.0 0.00 0.00 0.00 82 1012.0
20260503090117 12 0.0 0.0 0.00 0.00 0.00 82 1012.3
20260503081116 12 0.0 0.0 0.00 0.00 0.00 82 1012.6
20260503080157 12 0.0 0.0 0.00 0.00 0.00 81 1012.6
20260503072116 12 0.0 0.0 0.00 0.00 0.00 81 1012.8
20260503071117 12 0.0 0.0 0.00 0.00 0.00 81 1012.7
20260503070232 12 0.0 0.0 0.00 0.00 0.00 81 1012.8
20260503060116 12 0.0 0.0 0.00 0.00 0.00 80 1012.9
20260503055116 12 0.0 0.0 0.00 0.00 0.00 80 1013.0
20260503054116 12 0.0 0.0 0.00 0.00 0.00 81 1013.1
20260503053116 12 0.0 0.0 0.00 0.00 0.00 81 1013.2
20260503052136 12 0.0 0.0 0.00 0.00 0.00 81 1013.2
20260503051116 12 0.0 0.0 0.00 0.00 0.00 81 1013.3
20260503050116 12 0.0 0.0 0.00 0.00 0.00 81 1013.3
20260503045116 12 0.0 0.0 0.00 0.00 0.00 81 1013.4
20260503044116 12 0.0 0.0 0.00 0.00 0.00 81 1013.3
20260503043115 12 0.0 0.0 0.00 0.00 0.00 81 1013.1
20260503042116 12 0.0 0.0 0.00 0.00 0.00 82 1013.0
20260503041116 12 0.0 0.0 0.00 0.00 0.00 82 1012.8
20260503040116 12 0.0 0.0 0.00 0.00 0.00 82 1012.6
20260503035115 12 0.0 0.0 0.00 0.00 0.00 81 1012.5
20260503034115 12 0.0 0.0 0.00 0.00 0.00 81 1012.4
20260503033136 12 0.0 0.0 0.00 0.00 0.00 81 1012.3
20260503032116 12 0.0 0.0 0.00 0.00 0.00 80 1012.2
20260503031116 12 0.0 0.0 0.00 0.00 0.00 80 1012.1
20260503030115 12 0.0 0.0 0.00 0.00 0.00 80 1012.0
20260503025116 13 0.0 0.0 0.00 0.00 0.00 80 1011.9
20260503024115 13 0.0 0.0 0.00 0.00 0.00 79 1011.9
20260503023115 13 0.0 0.0 0.00 0.00 0.00 78 1011.8
20260503022115 13 0.0 0.0 0.00 0.00 0.00 77 1011.7
20260503021116 14 0.0 0.0 0.00 0.00 0.00 76 1011.6
20260503020136 15 0.0 0.0 0.00 0.00 0.00 75 1011.8
20260503015116 15 0.0 0.0 0.00 0.00 0.00 74 1011.7
20260503014118 15 0.0 0.0 0.00 0.00 0.00 73 1011.8
20260503013118 16 0.0 0.0 0.00 0.00 0.00 71 1011.8
20260503012116 16 0.0 0.0 0.00 0.00 0.00 71 1011.7
20260503011116 16 0.0 0.0 0.00 0.00 0.00 70 1011.7
20260503010214 16 0.0 0.0 0.00 0.00 0.00 70 1011.7
20260503005158 17 0.0 0.0 0.00 0.00 0.00 70 1011.6
20260503004115 17 0.0 0.0 0.00 0.00 0.00 69 1011.6
20260503003122 17 0.0 0.0 0.00 0.00 0.00 69 1011.7
20260503002116 17 0.0 0.0 0.00 0.00 0.00 70 1011.7
20260503001136 17 0.0 0.0 0.00 0.00 0.00 71 1011.7
20260503000118 17 0.0 0.0 0.00 0.00 0.00 71 1011.7
20260502235138 17 0.0 0.0 0.00 0.00 0.00 70 1011.8
20260502234118 17 0.0 0.0 0.00 0.00 0.00 69 1011.8
20260502233116 17 0.0 0.0 0.00 0.00 0.00 70 1011.8